Regional Weather Roundup
Issued by NWS Portland, ME

Current Version | Previous Version | Text Only | Print | Product List | Glossary Off
Versions: 1 2 3 4 5 6 7 8 9 10 11 12 13 14 15 16 17 18 19 20 21 22 23 24 25 26 27 28 29 30 31 32 33 34 35 36 37 38 39 40 41 42 43 44 45 46 47 48 49 50
000 ASUS41 KGYX 220110 RWRGYX WEATHER ROUNDUP FOR MAINE AND NEW HAMPSHIRE NATIONAL WEATHER SERVICE GRAY ME 900 PM EDT SAT APR 21 2018 MEZ002-005-006-010-012-015-018-020-021-024-026-027-029-220200- MAINE CITY SKY/WX TMP DP RH WIND PRES REMARKS PORTLAND FAIR 47 22 37 VRB7 30.27R SANFORD FAIR 42 23 46 NW5 30.27R BAR HARBOR MOCLDY 44 21 40 NW5 30.22R WISCASSET CLOUDY 47 23 38 NW3 30.26R ROCKLAND MOCLDY 47 22 37 NW5 30.24R FRYEBURG FAIR 40 24 53 CALM 30.27R LEWISTONAUBURN FAIR 45 23 42 NW5 30.27R AUGUSTA CLOUDY 46 22 38 NW7 30.25R WATERVILLE FAIR 44 22 41 NW6 30.22R BANGOR FAIR 42 21 43 W6 30.22R GREENVILLE N/A 35 23 61 NW9 30.16R MILLINOCKET CLOUDY 41 23 48 NW5 30.19R HOULTON FAIR 41 20 43 NW5 30.15R PRESQUE ISLE FAIR 38 21 50 NW3 30.16R FRENCHVILLE FAIR 39 20 46 NW8 30.13R CARIBOU FAIR 39 20 46 NW8 30.14R $$ NHZ002-005-008-009-011-012-014-220200- NEW HAMPSHIRE CITY SKY/WX TMP DP RH WIND PRES REMARKS PORTSMOUTH CLEAR 47 19 32 NW7 30.25R ROCHESTER FAIR 47 20 34 NW5 30.26R NASHUA FAIR 51 20 29 NW6 30.27R MANCHESTER FAIR 53 17 24 N5 30.26R CONCORD FAIR 47 18 31 N8 30.27R LACONIA FAIR 42 23 46 CALM 30.28R PLYMOUTH FAIR 40 26 56 MISG 30.28R BERLIN MOCLDY 31 24 75 CALM 30.24R WHITEFIELD FAIR 33 25 72 CALM 30.26R JAFFREY FAIR 40 29 64 CALM 30.27R KEENE FAIR 42 16 34 CALM 30.28R LEBANON FAIR 39 21 48 CALM 30.28R MT WASHINGTON MOCLDY 18 14 86 NW45 N/A WCI -5 $$ VTZ005-007-008-220200- VERMONT CITY SKY/WX TMP DP RH WIND PRES REMARKS ST JOHNSBURY N/A 41 23 48 MISG 30.26R MONTPELIER FAIR 39 20 46 CALM 30.32R BURLINGTON FAIR 47 19 33 NW5 30.31R $$ MAZ007-012-024-CTZ003-RIZ002-NYZ038-NYZ072-220200- SOUTHERN NEW ENGLAND AND NY CITY SKY/WX TMP DP RH WIND PRES REMARKS BOSTON FAIR 52 23 32 N7 30.26R WORCESTER FAIR 49 15 25 NW9 30.26R NANTUCKET FAIR 40 37 89 SW6 30.29R PROVIDENCE FAIR 53 23 31 W7 30.26R HARTFORD FAIR 51 19 28 W12 30.29R ALBANY FAIR 49 18 29 W13 30.32R NEW YORK CITY MOCLDY 58 20 22 NW14 30.30R $$ ANZ081-ANZ082-ANZ150-NHZ014-MEZ023>029-220200- COASTAL MARINE OBSERVATIONS STATION/POSITION TIME TEMP WIND PRES WAVE AIR SEA DIR/SP/G HT/PER (UTC) (F) (DEG/KT/KT) (MB) (FT/S) MOUNT DESERT ROC 0100 42 260/ 11/ 12 1023.3R MATINICUS ROCK 0000 44 290/ 11/ 11 1022.6R ISLE OF SHOALS 0000 53 330/ 17/ 19 1023.5R JEFFREYS LEDGE 0036 41 N/A 2/ 9 CASHES LEDGE BUO 0050 41 41 1024.4R 2/ 8 $$ .............KEY.............. WCI - WIND CHILL TC - TEMPERATURE IN CELSIUS VSB - VISIBILITY IN MILES HX - HEAT INDEX FAIR- INDICATES FEW OR NO CLOUDS BELOW 12,000 FT, WITH NO SIGNIFICANT WEATHER AND/OR OBSTRUCTIONS TO VISIBILITY.

USA.gov is the U.S. government's official web portal to all federal, state and local government web resources and services.